Regional Weather Roundup
Issued by NWS

Home | Current Version | Previous Version | Graphics & Text | Print | Product List | Glossary On
Versions: 1 2 3 4 5 6 7 8 9 10 11 12 13 14 15 16 17 18 19 20 21 22 23 24 25 26 27 28 29 30 31 32 33 34 35 36 37 38 39 40 41 42 43 44 45 46 47 48 49 50
842
ASUS43 KFSD 250510
RWRSD

WEATHER ROUNDUP FOR SOUTH DAKOTA
NATIONAL WEATHER SERVICE SIOUX FALLS SD
1200 AM CDT THU MAY 25 2017

NOTE: "FAIR" INDICATES FEW OR NO CLOUDS BELOW 12,000 FEET WITH NO
SIGNIFICANT WEATHER AND/OR OBSTRUCTIONS TO VISIBILITY.


SDZ001>005-009-010-012>017-250600-
NORTHWEST AND NORTH CENTRAL SOUTH DAKOTA

CITY           SKY/WX    TMP DP  RH WIND       PRES   REMARKS
BUFFALO          N/A     57  49  74 N33G40    29.29R
FAITH            N/A     58  41  53 SE30G43   29.26F
MOBRIDGE       CLEAR     58  42  55 SE24G35   29.38F
$$

SDZ012>016-024>037-041>051-057-063-072>074-250600-
SOUTHWEST AND SOUTH CENTRAL SOUTH DAKOTA

CITY           SKY/WX    TMP DP  RH WIND       PRES   REMARKS
RAPID CTY ARPT CLEAR     64  51  62 SW6       29.29R
PIERRE         CLEAR     57  43  59 SE17G24   29.43R
CUSTER         CLEAR     58  41  53 W7        29.44S
ELLSWORTH AFB  CLEAR     64  52  65 S6        29.29R
PHILIP         CLEAR     65  44  46 SE18G24   29.30F
PINE RIDGE     PTCLDY    65  46  50 S26G37    29.36F
SPEARFISH      MOCLDY    63  54  72 NW23G30   29.41R
WINNER         FAIR      58  44  60 SE22G31   29.45F
$$

SDZ004>011-016>023-039-040-250600-
NORTHEAST SOUTH DAKOTA

CITY           SKY/WX    TMP DP  RH WIND       PRES   REMARKS
ABERDEEN       PTCLDY    53  44  71 SE16      29.55F
WATERTOWN      CLEAR     50  42  74 SE9G18    29.62F
BROOKINGS      CLEAR     50  44  80 SE13      29.64F
SISSETON         N/A     49  45  86 S8        29.62F
$$

SDZ017-020-022-023-036>040-048>070-250600-
SOUTHEAST SOUTH DAKOTA

CITY           SKY/WX    TMP DP  RH WIND       PRES   REMARKS
SIOUX FALLS    CLEAR     53  45  74 SE12G21   29.64F
HURON          CLEAR     54  45  71 SE17G23   29.54F
CHAMBERLAIN    CLEAR     55  47  75 SE15      29.50S
MITCHELL       CLEAR     55  45  68 SE18      29.58F
YANKTON        CLEAR     55  44  66 SE9       29.62F
$$

ABBREVIATIONS USED IN REMARKS
   TC - TEMPERATURE IN CELSIUS
  WCI - WIND CHILL INDEX
   HX - HEAT INDEX
  VSB - VISIBILITY





USA.gov is the U.S. government's official web portal to all federal, state and local government web resources and services.